Skip Page Navigation
NASA JPL Caltech
NASA Logo - Jet Propulsion Laboratory + View the NASA Portal
+ Center for Near-Earth Object Studies
JPL Home Earth Solar System Stars & Galaxies Technology
JPL Solar System Dynamics
BODIES ORBITS EPHEMERIDES TOOLS PHYSICAL DATA DISCOVERY FAQ SITE MAP
JPL Small-Body Database Browser
Search: [ help ]  
332378 (2007 FC11)
Classification: Main-belt Asteroid          SPK-ID: 2332378
Ephemeris | Orbit Diagram | Orbital Elements | Mission Design | Physical Parameters | Discovery Circumstances | Close-Approach Data ]

[ show orbit diagram ]
Orbital Elements at Epoch 2459200.5 (2020-Dec-17.0) TDB
Reference: JPL 14 (heliocentric ecliptic J2000)
 Element Value Uncertainty (1-sigma)   Units 
e .06985512459455866 5.6512e-08  
a 2.854883607680026 3.8842e-08 au
q 2.655455357562575 1.6911e-07 au
i 8.476524918742202 5.7231e-06 deg
node 228.0712020133196 3.9679e-05 deg
peri 341.5300794161679 5.9943e-05 deg
M 299.3111272118089 4.6262e-05 deg
tp 2459497.521308962788
(2021-Oct-10.02130896)
0.00022866 TDB
period 1761.8991145179
4.82
3.5957e-05
9.844e-08
d
yr
n .204324979241791 4.1699e-09 deg/d
Q 3.054311857797477 4.1555e-08 au
  Orbit Determination Parameters
   # obs. used (total)      157  
   data-arc span      5055 days (13.84 yr)  
   first obs. used      2007-03-16  
   last obs. used      2021-01-16  
   planetary ephem.      DE431  
   SB-pert. ephem.      SB431-N16  
   condition code      0  
   norm. resid. RMS      .56601  
   source      ORB  
   producer      Otto Matic  
   solution date      2021-Feb-24 15:48:59  

Additional Information
 Earth MOID = 1.64968 au 
 Jupiter MOID = 1.92729 au 
 T_jup = 3.284 
[ show covariance matrix ]

Ephemeris | Orbit Diagram | Orbital Elements | Mission Design | Physical Parameters | Discovery Circumstances | Close-Approach Data ]

Physical Parameter Table
Parameter Symbol Value Units Sigma Reference Notes
absolute magnitude H 16.5   n/a MPO460355  

332378 (2007 FC11)          Discovered 2007-Mar-16 by Spacewatch at Kitt Peak
Reference: 20120703/Numbers.arcLast Updated: 2012-07-09

[ hide close-approach data ]
Close-Approach Data   ...sorted by Date/Time (TDB)
Date/Time (TDB) Time Uncertainty
(days_HH:MM)
Body Nominal Distance (au) Minimum Distance (au) Maximum Distance (au) V-relative (km/s) V-infinity (km/s) JD (TDB) Time Uncertainty (minutes) Semi-major axis (km) Semi-minor axis (km) range-LOV angle (deg) N-sigma BP Orbit Ref. Reference Modified
1975-Nov-14 12:36 00:02 Jupiter 1.93180172967811 1.93180118325572 1.93180227610137 3.46067578643624 3.33156900010332 2442731.024841620 2.4716792506919 184.672707292523 20.6275373002107 -85.3756671731516 2454378.18719556 T 14 CATAB v2.0f-lin.ifort 2021-Feb-24 15:48:59 2021-Feb-24 15:49
2000-Apr-19 12:43 < 00:01 Jupiter 1.94167647112054 1.94167587111172 1.94167707112959 3.75751259325076 3.63956532428988 2451654.029870710 0.990926399648794 90.4697107760853 23.5212112613803 83.0886965295673 2489814.24006972 T 14 CATAB v2.0f-lin.ifort 2021-Feb-24 15:48:59 2021-Feb-24 15:49
2105-Dec-12 09:24 00:05 Jupiter 1.97168251722801 1.97168114224029 1.97168389223355 3.36268066677457 3.23240370882926 2490240.891449182 5.16984200357954 330.181894318051 19.7130199218079 -77.5603108128333 2586019.39694524 T 14 CATAB v2.0f-lin.ifort 2021-Feb-24 15:48:59 2021-Feb-24 15:49
2130-May-23 18:30 00:06 Jupiter 1.9171522030438 1.91715169718606 1.91715270890154 3.60680901676507 3.48216104520111 2499169.270846200 6.43685121855396 484.500971375307 21.0319831316445 -88.8675629522136 2468778.19013491 T 14 CATAB v2.0f-lin.ifort 2021-Feb-24 15:48:59 2021-Feb-24 15:49
2154-Oct-27 16:22 00:08 Jupiter 1.97818513234842 1.97818288776078 1.97818737698463 3.85683835174963 3.74417398505112 2508092.182118990 7.86905081044829 525.453683198641 25.2230517082149 78.926237234651 2528628.90577913 T 14 CATAB v2.0f-lin.ifort 2021-Feb-24 15:48:59 2021-Feb-24 15:49
Ephemeris | Orbit Diagram | Orbital Elements | Mission Design | Physical Parameters | Discovery Circumstances | Close-Approach Data ]
ABOUT SSD CREDITS/AWARDS PRIVACY/COPYRIGHT GLOSSARY LINKS
FirstGov 2021-Apr-13 21:10 UT
(server date/time)  
NASA Home Page
Site Manager:   Ryan S. Park
Webmaster  Alan B. Chamberlin